This is the latest recevied weather packets stored in our database for station/object KD4WLE. If no packets are shown the sender has not sent any weather packets the latest 10 day(s).
| Time | Temp. | Humidity | Pressure | Rain* | Wind** | Luminosity | Snow |
|---|---|---|---|---|---|---|---|
| 1777418018 | 25° C | 81% | 1019.1 hPa | 0 mm | - | 46 W/m² | - |
| 1777417714 | 25° C | 81% | 1019 hPa | 0 mm | - | 56 W/m² | - |
| 1777417404 | 25° C | 80% | 1019.2 hPa | 0 mm | - | 66 W/m² | - |
| 1777417101 | 25° C | 79% | 1019.2 hPa | 0 mm | - | 78 W/m² | - |
| 1777416796 | 25° C | 79% | 1019.2 hPa | 0 mm | - | 88 W/m² | - |
| 1777416492 | 25° C | 79% | 1019.2 hPa | 0 mm | - | 44 W/m² | - |
| 1777416189 | 25.56° C | 79% | 1019.2 hPa | 0 mm | - | 118 W/m² | - |
| 1777415888 | 25.56° C | 77% | 1019.1 hPa | 0 mm | - | 127 W/m² | - |
| 1777415584 | 25.56° C | 78% | 1019.2 hPa | 0 mm | - | 75 W/m² | - |
| 1777415280 | 25.56° C | 78% | 1019.2 hPa | 0 mm | - | 67 W/m² | - |
| 1777414975 | 25.56° C | 77% | 1019.3 hPa | 0 mm | - | 172 W/m² | - |
| 1777414675 | 26.11° C | 78% | 1019.2 hPa | 0 mm | - | 186 W/m² | - |
| 1777414370 | 25.56° C | 77% | 1019 hPa | 0 mm | - | 203 W/m² | - |
| 1777414064 | 26.11° C | 78% | 1019.4 hPa | 0 mm | - | 220 W/m² | - |
| 1777413758 | 26.11° C | 76% | 1019.5 hPa | 0 mm | - | 236 W/m² | - |
| 1777413454 | 26.11° C | 77% | 1019.2 hPa | 0 mm | - | 253 W/m² | - |
| 1777413151 | 25.56° C | 78% | 1019.4 hPa | 0 mm | - | 269 W/m² | - |
| 1777412846 | 26.11° C | 76% | 1019.5 hPa | 0 mm | - | 287 W/m² | - |
| 1777412546 | 25.56° C | 78% | 1019.4 hPa | 0 mm | - | 305 W/m² | - |
| 1777412243 | 25.56° C | 78% | 1019.5 hPa | 0 mm | - | 316 W/m² | - |
| 1777411940 | 26.11° C | 77% | 1019.4 hPa | 0 mm | - | 352 W/m² | - |
| 1777411638 | 26.11° C | 77% | 1019.7 hPa | 0 mm | - | 359 W/m² | - |
| 1777411334 | 25.56° C | 78% | 1019.7 hPa | 0 mm | - | 165 W/m² | - |
| 1777411033 | 26.11° C | 78% | 1019.9 hPa | 0 mm | - | 144 W/m² | - |
| 1777410728 | 26.67° C | 78% | 1020.2 hPa | 0 mm | - | 222 W/m² | - |
* Rain latest hour (hover to see other rain measurements)
** Current wind speed in m/s (hover to see current wind gust speed)